User: anonymous   Login
Location: Caltech
(34.1382°N, 118.1253°W)
Time: 14:19:13
(UTC-07:00)
Language:

NOSS 3-2 (A) - Orbit

View from above orbital plane
View from above orbital plane
View from above satellite
View from above satellite

Ground track
Ground track

The orbit data is extracted from the following two-line orbital elements,

1 28095U 03054A   17116.91948711 0.00000030  00000-0  41401-4 0    02
2 28095  63.4194  83.1024 0299000 358.1213   1.8787 13.41349908    07
Epoch (UTC): 26 April 2017 22:04:03
Eccentricity: 0.0299000
inclination: 63.4194°
perigee height: 880 km
apogee height: 1328 km
right ascension of ascending node: 83.1024°
argument of perigee: 358.1213°
revolutions per day: 13.41349908
mean anomaly at epoch: 1.8787°
orbit number at epoch: 0

The dashed part of the orbit path shows where the satellite is in the earth's shadow,  

DLR